Tracking 27097 objects as of 30-Mar-2023
HD Live streaming from Space Station
objects crossing your sky now

STARLINK-4191

Track STARLINK-4191 now!
10-day predictions
STARLINK-4191 is classified as:


NORAD ID: 52860
Int'l Code: 2022-062AG
Perigee: 546.1 km
Apogee: 547.6 km
Inclination: 53.2 °
Period: 95.4 minutes
Semi major axis: 6917 km
RCS: Unknown
Launch date: June 17, 2022
Source: United States (US)
Launch site: AIR FORCE EASTERN TEST RANGE (AFETR)
Your satellite tracking list
Your tracking list is empty




NASA's NSSDC Master Catalog

Two Line Element Set (TLE):
1 52860U 22062AG  23088.74729135  .00002395  00000-0  16845-3 0  9998
2 52860  53.2154 174.2097 0001073  88.0225 272.0890 15.08857620 43983
Source of the keplerian elements: AFSPC